Home   Weather   Wilmington   Past weeks

Flag for USA Past Weather in Wilmington, Delaware, USA — Yesterday and Last 2 Weeks

Now
55 °F

Heavy rain. Fog.


Feels Like: 50 °F
Forecast: 55 / 69 °F
Wind: 20 mph from East

Location: New Castle County Airport

Current Time: May 25, 2017 at 6:48:39 am

Latest Report: May 25, 2017 at 5:51 am


Visibility: 2 mi

Pressure: 29.59 "Hg

Humidity: 96%

Dew Point: 54 °F

Location of WilmingtonLocation

Past Weather in Wilmington — Graph

°F

Wilmington Temperature Yesterday

Maximum temperature yesterday: 69 °F (at 2:51 pm)
Minimum temperature yesterday: 56 °F (at 5:51 am)
Average temperature yesterday: 62 °F

High & Low Weather Summary for the Past Weeks

 TemperatureHumidityPressure
High91 °F (May 18, 3:51 pm)100% (May 13, 8:00 am)30.36 "Hg (May 13, 8:00 am)
Low45 °F (May 14, 4:51 am)30% (May 14, 10:51 pm)29.61 "Hg (May 14, 4:51 pm)
Average62 °F73%29.95 "Hg
* Reported May 10 4:51 am — May 25 4:51 am, Wilmington. Weather by CustomWeather, © 2017

Note: Actual official high and low records may vary slightly from our data, if they occured in-between our weather recording intervals... More about our weather records

Advertising

Wilmington Weather History for the Previous 24 Hours

Scroll right to see more
 ConditionsComfort  
Time TempWeatherWind HumidityBarometerVisibility
4:51 am
Thu, May 25
56 °FHeavy rain. Fog.15 mph97%29.62 "Hg4 mi
4:28 am56 °FRain. Overcast.15 mph97%29.63 "Hg7 mi
3:51 am56 °FRain. Mostly cloudy.13 mph97%29.65 "Hg8 mi
3:14 am56 °FLight rain. Low clouds.12 mph97%29.67 "Hg10 mi
2:51 am56 °FLight rain. Fog.14 mph97%29.68 "Hg6 mi
1:51 am58 °FLight rain. Overcast.10 mph90%29.72 "Hg10 mi
1:23 am58 °FOvercast.13 mph87%29.72 "Hg10 mi
12:51 am59 °FOvercast.12 mph81%29.74 "Hg10 mi
11:51 pm
Wed, May 24
59 °FOvercast.13 mph81%29.75 "Hg10 mi
10:51 pm60 °FOvercast.12 mph75%29.79 "Hg10 mi
10:24 pm61 °FPassing clouds.13 mph70%29.79 "Hg10 mi
9:51 pm61 °FPartly cloudy.17 mph70%29.79 "Hg10 mi
8:51 pm64 °FOvercast.9 mph65%29.77 "Hg10 mi
7:51 pm65 °FOvercast.12 mph66%29.76 "Hg10 mi
6:51 pm67 °FSunny.14 mph59%29.75 "Hg10 mi
5:51 pm68 °FBroken clouds.7 mph65%29.75 "Hg10 mi
4:51 pm69 °FOvercast.9 mph57%29.75 "Hg10 mi
3:51 pm69 °FOvercast.7 mph59%29.75 "Hg10 mi
2:51 pm69 °FMore clouds than sun.8 mph61%29.75 "Hg10 mi
1:51 pm68 °FCloudy.6 mph63%29.74 "Hg10 mi
12:51 pm67 °FOvercast.8 mph63%29.75 "Hg10 mi
11:51 am67 °FOvercast.10 mph66%29.74 "Hg10 mi
10:51 am64 °FOvercast.12 mph73%29.74 "Hg10 mi
9:51 am63 °FOvercast.9 mph78%29.75 "Hg10 mi
9:28 am62 °FMore clouds than sun.7 mph78%29.76 "Hg10 mi
9:12 am61 °FMostly cloudy.3 mph81%29.76 "Hg10 mi
8:51 am61 °FOvercast.7 mph81%29.75 "Hg10 mi
7:51 am59 °FBroken clouds.6 mph84%29.73 "Hg10 mi
6:51 am57 °FLight rain. Mostly cloudy.6 mph93%29.72 "Hg10 mi
Weather by CustomWeather, © 2017

See weather overviewHow to use our weather pages